This is the latest recevied weather packets stored in our database for station/object W4UWO. If no packets are shown the sender has not sent any weather packets the latest 10 day(s).
| Time | Temp. | Humidity | Pressure | Rain* | Wind** | Luminosity | Snow |
|---|---|---|---|---|---|---|---|
| 1788524889 | 26.11° C | 82% | 1018 hPa | 0 mm | - | 88 W/m² | - |
| 1788524589 | 25.56° C | 83% | 1018 hPa | 0 mm | - | 78 W/m² | - |
| 1788524284 | 25° C | 84% | 1017.8 hPa | 0 mm | - | 60 W/m² | - |
| 1788523980 | 25° C | 86% | 1017.7 hPa | 0 mm | - | 52 W/m² | - |
| 1788523676 | 24.44° C | 87% | 1017.8 hPa | 0 mm | - | 45 W/m² | - |
| 1788523372 | 25° C | 86% | 1017.7 hPa | 0 mm | - | 38 W/m² | - |
| 1788523067 | 24.44° C | 87% | 1017.7 hPa | 0 mm | - | 32 W/m² | - |
| 1788522762 | 23.89° C | 89% | 1017.5 hPa | 0 mm | - | 26 W/m² | - |
| 1788522457 | 23.89° C | 91% | 1017.3 hPa | 0 mm | - | 21 W/m² | - |
| 1788522156 | 23.89° C | 91% | 1017.4 hPa | 0 mm | - | 17 W/m² | - |
| 1788521851 | 23.89° C | 90% | 1017.5 hPa | 0 mm | - | 12 W/m² | - |
| 1788521550 | 23.89° C | 89% | 1017.2 hPa | 0 mm | - | 8 W/m² | - |
| 1788521245 | 23.89° C | 89% | 1017.4 hPa | 0 mm | - | 5 W/m² | - |
| 1788520941 | 23.89° C | 90% | 1017.4 hPa | 0 mm | - | 3 W/m² | - |
| 1788520637 | 23.33° C | 92% | 1017.4 hPa | 0 mm | - | 2 W/m² | - |
| 1788520332 | 23.33° C | 92% | 1017.1 hPa | 0 mm | - | 1 W/m² | - |
| 1788520028 | 23.33° C | 91% | 1017.2 hPa | 0 mm | - | 0 W/m² | - |
| 1788519727 | 23.33° C | 91% | 1017.1 hPa | 0 mm | - | 0 W/m² | - |
| 1788519422 | 23.89° C | 91% | 1017.1 hPa | 0 mm | - | 0 W/m² | - |
| 1788519117 | 23.89° C | 91% | 1016.9 hPa | 0 mm | - | 0 W/m² | - |
| 1788518812 | 23.89° C | 91% | 1017.1 hPa | 0 mm | - | 0 W/m² | - |
| 1788518508 | 23.89° C | 91% | 1016.8 hPa | 0 mm | - | 0 W/m² | - |
| 1788518204 | 23.89° C | 90% | 1016.9 hPa | 0 mm | - | 0 W/m² | - |
| 1788517899 | 23.89° C | 90% | 1016.9 hPa | 0 mm | - | 0 W/m² | - |
| 1788517595 | 23.89° C | 90% | 1016.7 hPa | 0 mm | - | 0 W/m² | - |
* Rain latest hour (hover to see other rain measurements)
** Current wind speed in m/s (hover to see current wind gust speed)